FW2998 Weather Reports


time (UTC)temp
C
wind
direction
speed
KPH
gust
KPH
rain 1hr
cm
rain 24hr
cm
rain mn
cm
humidity
%
barometer
mb
20260506211536 31 0 0.0 4.8 0.00 0.00 0.00 50 1012.6
20260506211021 31 0 0.0 3.2 0.00 0.00 0.00 51 1012.6
20260506210526 31 0 0.0 4.8 0.00 0.00 0.00 51 1012.6
20260506210037 31 0 0.0 16.1 0.00 0.00 0.00 50 1012.5
20260506205519 31 0 1.6 16.1 0.00 0.00 0.00 50 1012.5
20260506205024 31 310 0.0 9.7 0.00 0.00 0.00 52 1012.6
20260506204536 31 0 1.6 9.7 0.00 0.00 0.00 51 1012.6
20260506204022 31 22 0.0 6.4 0.00 0.00 0.00 52 1012.8
20260506203520 30 0 0.0 6.4 0.00 0.00 0.00 54 1012.8
20260506203039 30 0 0.0 6.4 0.00 0.00 0.00 54 1012.8
20260506202520 30 137 0.0 8.0 0.00 0.00 0.00 54 1012.8
20260506202020 30 0 0.0 9.7 0.00 0.00 0.00 54 1013.0
20260506201537 30 0 1.6 9.7 0.00 0.00 0.00 54 1013.3
20260506201022 30 0 0.0 4.8 0.00 0.00 0.00 55 1013.5
20260506200522 30 0 0.0 8.0 0.00 0.00 0.00 56 1013.6
20260506200041 29 0 1.6 8.0 0.00 0.00 0.00 57 1013.7
20260506195520 29 248 0.0 8.0 0.00 0.00 0.00 56 1013.7
20260506195019 28 0 1.6 6.4 0.00 0.00 0.00 56 1013.8
20260506194544 28 253 0.0 9.7 0.00 0.00 0.00 57 1013.7
20260506194018 28 0 0.0 9.7 0.00 0.00 0.00 58 1013.9
20260506193518 28 126 0.0 11.3 0.00 0.00 0.00 57 1014.0
20260506193038 28 142 0.0 11.3 0.00 0.00 0.00 58 1013.9
20260506192521 28 96 0.0 9.7 0.00 0.00 0.00 59 1013.9
20260506192020 27 0 0.0 9.7 0.00 0.00 0.00 59 1014.1
20260506191539 27 0 0.0 6.4 0.00 0.00 0.00 58 1014.1
20260506191021 27 0 0.0 6.4 0.00 0.00 0.00 60 1014.1
20260506190522 27 0 0.0 4.8 0.00 0.00 0.00 59 1014.1
20260506190038 27 0 0.0 4.8 0.00 0.00 0.00 60 1014.2
20260506185520 27 0 0.0 6.4 0.00 0.00 0.00 61 1014.4
20260506185022 27 294 0.0 14.5 0.00 0.00 0.00 62 1014.7
20260506184536 26 0 1.6 14.5 0.00 0.00 0.00 63 1014.7
20260506184021 26 233 0.0 9.7 0.00 0.00 0.00 64 1014.7
20260506183520 26 146 0.0 6.4 0.00 0.00 0.00 64 1014.6
20260506183037 26 338 0.0 14.5 0.00 0.00 0.00 64 1014.8
20260506182519 26 0 0.0 14.5 0.00 0.00 0.00 64 1015.0
20260506182021 26 312 0.0 6.4 0.00 0.00 0.00 64 1015.0
20260506181539 26 273 0.0 11.3 0.00 0.00 0.00 64 1015.2
20260506181023 26 0 0.0 11.3 0.00 0.00 0.00 65 1015.1
20260506180520 26 306 0.0 6.4 0.00 0.00 0.00 63 1015.1
20260506180043 26 0 0.0 6.4 0.00 0.00 0.00 64 1015.3
20260506175520 26 0 0.0 6.4 0.00 0.00 0.00 64 1015.6
20260506175021 26 0 0.0 6.4 0.00 0.00 0.00 64 1015.4
20260506174538 26 52 0.0 6.4 0.00 0.00 0.00 66 1015.4
20260506174021 25 0 0.0 8.0 0.00 0.00 0.00 67 1015.6
20260506173521 25 0 0.0 8.0 0.00 0.00 0.00 66 1015.7
20260506173043 25 203 0.0 8.0 0.00 0.00 0.00 66 1015.9
20260506172520 25 0 0.0 4.8 0.00 0.00 0.00 66 1015.9
20260506172021 25 0 0.0 6.4 0.00 0.00 0.00 66 1016.2
20260506171540 25 0 0.0 6.4 0.00 0.00 0.00 65 1016.3
20260506171026 25 259 0.0 6.4 0.00 0.00 0.00 65 1016.2
20260506170521 25 0 0.0 6.4 0.00 0.00 0.00 64 1016.4
20260506170035 25 225 0.0 6.4 0.00 0.00 0.00 64 1016.3
20260506165521 25 0 0.0 6.4 0.00 0.00 0.00 66 1016.2
20260506165023 25 0 0.0 6.4 0.00 0.00 0.00 66 1016.4
20260506164545 25 298 0.0 1.6 0.00 0.00 0.00 66 1016.4
20260506164022 25 0 0.0 4.8 0.00 0.00 0.00 67 1016.5
20260506163521 25 0 0.0 4.8 0.00 0.00 0.00 66 1016.6
20260506163035 25 0 0.0 4.8 0.00 0.00 0.00 66 1016.8
20260506162520 25 0 0.0 8.0 0.00 0.00 0.00 67 1016.8
20260506162018 25 109 0.0 8.0 0.00 0.00 0.00 67 1016.5
20260506161534 25 0 0.0 6.4 0.00 0.00 0.00 69 1016.6
20260506161022 25 0 0.0 11.3 0.00 0.00 0.00 70 1016.6
20260506160522 24 0 0.0 11.3 0.00 0.00 0.00 71 1016.5
20260506160041 24 0 0.0 6.4 0.00 0.00 0.00 71 1016.5
20260506155522 23 0 0.0 3.2 0.00 0.00 0.00 73 1016.5
20260506155018 23 0 0.0 4.8 0.00 0.00 0.00 73 1016.4
20260506154547 23 0 0.0 4.8 0.00 0.00 0.00 74 1016.3
20260506154018 23 0 0.0 3.2 0.00 0.00 0.00 72 1016.3
20260506153520 23 0 0.0 1.6 0.00 0.00 0.00 72 1016.4
20260506153036 23 0 0.0 1.6 0.00 0.00 0.00 73 1016.3
20260506152522 23 0 0.0 1.6 0.00 0.00 0.00 73 1016.2
20260506152019 23 0 0.0 3.2 0.00 0.00 0.00 73 1016.3
20260506151536 23 0 0.0 6.4 0.00 0.00 0.00 72 1016.3
20260506151018 22 0 0.0 6.4 0.00 0.00 0.00 74 1016.3
20260506150521 22 53 0.0 3.2 0.00 0.00 0.00 74 1016.2
20260506150038 22 0 0.0 3.2 0.00 0.00 0.00 74 1016.1
20260506145523 22 0 0.0 0.0 0.00 0.00 0.00 75 1016.1
20260506145019 22 0 0.0 9.7 0.00 0.00 0.00 75 1016.1
20260506144538 21 0 0.0 9.7 0.00 0.00 0.00 75 1016.1
20260506144021 21 0 0.0 8.0 0.00 0.00 0.00 75 1016.2
20260506143520 21 180 0.0 8.0 0.00 0.00 0.00 75 1016.1
20260506143037 21 225 0.0 6.4 0.00 0.00 0.00 75 1016.2
20260506142518 21 0 0.0 6.4 0.00 0.00 0.00 76 1016.2
20260506142017 21 0 0.0 4.8 0.00 0.00 0.00 76 1016.2
20260506141542 21 0 0.0 1.6 0.00 0.00 0.00 77 1016.2
20260506141020 21 0 0.0 1.6 0.00 0.00 0.00 78 1016.3
20260506140519 20 0 0.0 1.6 0.00 0.00 0.00 78 1016.2
20260506140035 20 0 0.0 3.2 0.00 0.00 0.00 79 1016.3
20260506135517 20 0 0.0 9.7 0.00 0.00 0.00 79 1016.2
20260506135019 20 0 0.0 9.7 0.00 0.00 0.00 79 1016.4
20260506134535 20 0 0.0 9.7 0.00 0.00 0.00 80 1016.4
20260506134020 19 0 0.0 0.0 0.00 0.00 0.00 80 1016.3
20260506133520 19 0 0.0 0.0 0.00 0.00 0.00 81 1016.0
20260506133037 18 0 0.0 0.0 0.00 0.00 0.00 81 1016.0
20260506132519 18 0 0.0 4.8 0.00 0.00 0.00 82 1016.3
20260506132020 18 0 0.0 4.8 0.00 0.00 0.00 82 1016.2
20260506131538 18 323 0.0 3.2 0.00 0.00 0.00 82 1016.2
20260506131021 18 0 0.0 3.2 0.00 0.00 0.00 83 1016.3
20260506130523 18 0 0.0 3.2 0.00 0.00 0.00 83 1016.3
20260506130035 17 0 0.0 3.2 0.00 0.00 0.00 84 1016.4
20260506125519 17 0 0.0 3.2 0.00 0.00 0.00 84 1016.3
20260506125022 17 0 0.0 4.8 0.00 0.00 0.00 85 1016.4
20260506124538 17 0 0.0 4.8 0.00 0.00 0.00 86 1016.4
20260506124020 17 0 0.0 1.6 0.00 0.00 0.00 86 1016.2
20260506123520 17 0 0.0 1.6 0.00 0.00 0.00 87 1016.1
20260506123040 16 275 0.0 1.6 0.00 0.00 0.00 88 1016.0
20260506122519 16 0 0.0 1.6 0.00 0.00 0.00 89 1016.0
20260506122019 16 0 0.0 0.0 0.00 0.00 0.00 89 1016.1
20260506121534 16 0 0.0 0.0 0.00 0.00 0.00 89 1016.0
20260506121020 16 0 0.0 0.0 0.00 0.00 0.00 89 1015.9
20260506120521 16 0 0.0 0.0 0.00 0.00 0.00 89 1015.8
20260506120104 16 0 0.0 0.0 0.00 0.00 0.00 90 1015.8
20260506115521 16 0 0.0 0.0 0.00 0.00 0.00 90 1015.9
20260506115019 16 0 0.0 0.0 0.00 0.00 0.00 90 1016.1
20260506114536 16 0 0.0 0.0 0.00 0.00 0.00 90 1015.8
20260506114020 15 0 0.0 0.0 0.00 0.00 0.00 90 1015.6
20260506113521 15 0 0.0 0.0 0.00 0.00 0.00 90 1015.4
20260506113036 15 0 0.0 0.0 0.00 0.00 0.00 90 1015.2
20260506112520 15 0 0.0 0.0 0.00 0.00 0.00 90 1015.1
20260506112020 15 0 0.0 0.0 0.00 0.00 0.00 89 1015.1
20260506111534 15 0 0.0 0.0 0.00 0.00 0.00 89 1015.2
20260506111019 15 0 0.0 0.0 0.00 0.00 0.00 89 1015.2
20260506110519 15 0 0.0 0.0 0.00 0.00 0.00 88 1015.2
20260506110032 15 0 0.0 0.0 0.00 0.00 0.00 88 1015.2
20260506105519 15 0 0.0 0.0 0.00 0.00 0.00 88 1015.3
20260506105020 15 0 0.0 0.0 0.00 0.00 0.00 88 1015.2
20260506104540 15 0 0.0 1.6 0.00 0.00 0.00 88 1015.1
20260506104022 15 0 0.0 1.6 0.00 0.00 0.00 88 1015.2
20260506103519 15 0 0.0 1.6 0.00 0.00 0.00 88 1015.1
20260506103036 15 0 0.0 0.0 0.00 0.00 0.00 87 1015.1
20260506102519 15 0 0.0 0.0 0.00 0.00 0.00 87 1015.1
20260506102019 15 0 0.0 0.0 0.00 0.00 0.00 87 1015.1
20260506101536 15 0 0.0 0.0 0.00 0.00 0.00 87 1015.0
20260506101020 15 0 0.0 0.0 0.00 0.00 0.00 87 1015.0
20260506100519 15 0 0.0 0.0 0.00 0.00 0.00 87 1014.9
20260506100035 15 0 0.0 0.0 0.00 0.00 0.00 87 1014.9
20260506095520 15 0 0.0 0.0 0.00 0.00 0.00 86 1014.9
20260506095021 15 0 0.0 0.0 0.00 0.00 0.00 86 1015.0
20260506094536 15 0 0.0 0.0 0.00 0.00 0.00 86 1015.2
20260506094018 15 0 0.0 0.0 0.00 0.00 0.00 86 1015.4
20260506093519 15 0 0.0 0.0 0.00 0.00 0.00 85 1015.5
20260506093045 15 0 0.0 0.0 0.00 0.00 0.00 85 1015.4
20260506092520 15 0 0.0 0.0 0.00 0.00 0.00 85 1015.5
20260506092020 16 0 0.0 0.0 0.00 0.00 0.00 85 1015.4
20260506091536 16 0 0.0 0.0 0.00 0.00 0.00 85 1015.4
20260506091019 16 0 0.0 1.6 0.00 0.00 0.00 85 1015.4
20260506090519 16 0 0.0 1.6 0.00 0.00 0.00 85 1015.3
20260506090035 16 0 0.0 1.6 0.00 0.00 0.00 85 1015.3
20260506085521 16 0 0.0 1.6 0.00 0.00 0.00 84 1015.4
20260506085021 16 0 0.0 1.6 0.00 0.00 0.00 83 1015.4
20260506084536 16 0 0.0 0.0 0.00 0.00 0.00 83 1015.5
20260506084020 16 0 0.0 0.0 0.00 0.00 0.00 83 1015.7
20260506083523 16 0 0.0 0.0 0.00 0.00 0.00 82 1015.6
20260506083038 16 0 0.0 0.0 0.00 0.00 0.00 82 1015.6
20260506082518 16 0 0.0 0.0 0.00 0.00 0.00 82 1015.7
20260506082020 16 0 0.0 0.0 0.00 0.00 0.00 82 1015.8
20260506081536 16 0 0.0 0.0 0.00 0.00 0.00 81 1015.8
20260506081019 16 0 0.0 0.0 0.00 0.00 0.00 81 1015.8
20260506080519 16 0 0.0 0.0 0.00 0.00 0.00 81 1015.9
20260506073520 16 0 0.0 0.0 0.00 0.00 0.00 80 1015.8
20260506073036 16 0 0.0 0.0 0.00 0.00 0.00 80 1015.8
20260506072520 16 0 0.0 0.0 0.00 0.00 0.00 80 1015.7
20260506072021 16 0 0.0 0.0 0.00 0.00 0.00 80 1015.8
20260506071542 16 0 0.0 0.0 0.00 0.00 0.00 80 1015.8
20260506071019 17 0 0.0 0.0 0.00 0.00 0.00 79 1015.7
20260506070519 17 0 0.0 0.0 0.00 0.00 0.00 79 1015.6
20260506062517 17 0 0.0 0.0 0.00 0.00 0.00 77 1015.8
20260506062020 17 0 0.0 0.0 0.00 0.00 0.00 77 1015.7
20260506061537 17 0 0.0 0.0 0.00 0.00 0.00 77 1015.7
20260506061021 17 0 0.0 0.0 0.00 0.00 0.00 77 1015.9
20260506060521 17 0 0.0 0.0 0.00 0.00 0.00 77 1015.9
20260506051019 17 0 0.0 1.6 0.00 0.00 0.00 75 1016.1
20260506050520 18 0 0.0 1.6 0.00 0.00 0.00 74 1016.1
20260506045018 18 0 0.0 3.2 0.00 0.03 0.00 74 1016.2
20260506044550 18 0 0.0 3.2 0.00 0.03 0.00 74 1016.3
20260506044019 18 0 0.0 3.2 0.00 0.03 0.00 73 1016.5
20260506043519 18 0 0.0 1.6 0.00 0.03 0.00 73 1016.3
20260506043033 18 0 0.0 4.8 0.00 0.03 0.00 73 1016.4
20260506042520 18 0 0.0 4.8 0.00 0.03 0.00 73 1016.3
20260506042020 18 0 0.0 1.6 0.00 0.03 0.00 72 1016.5
20260506041540 18 0 0.0 1.6 0.00 0.03 0.00 71 1016.5
20260506041019 18 0 0.0 0.0 0.00 0.03 0.00 71 1016.5
20260506040519 18 0 0.0 0.0 0.00 0.03 0.00 71 1016.6
20260506040043 19 0 0.0 1.6 0.00 0.03 0.00 70 1016.6
20260506035519 19 0 0.0 1.6 0.00 0.03 0.03 70 1016.5
20260506035019 19 0 0.0 1.6 0.00 0.03 0.03 70 1016.5
20260506034536 19 0 0.0 1.6 0.00 0.03 0.03 69 1016.5
20260506034020 19 0 0.0 1.6 0.00 0.03 0.03 69 1016.5
20260506033519 19 0 0.0 1.6 0.00 0.03 0.03 69 1016.5
20260506033036 19 0 0.0 1.6 0.00 0.03 0.03 68 1016.4
20260506032522 20 0 0.0 4.8 0.00 0.03 0.03 68 1016.4
20260506032020 20 0 0.0 4.8 0.00 0.03 0.03 68 1016.4
20260506031553 20 0 0.0 4.8 0.00 0.03 0.03 67 1016.2
20260506031020 20 0 0.0 3.2 0.00 0.03 0.03 66 1016.2
20260506030519 20 146 0.0 11.3 0.00 0.03 0.03 66 1016.2
20260506030056 20 0 0.0 11.3 0.00 0.03 0.03 66 1016.2
20260506025523 20 115 0.0 4.8 0.00 0.03 0.03 65 1016.1
20260506025019 20 0 0.0 4.8 0.00 0.03 0.03 65 1016.1
20260506024540 20 59 0.0 3.2 0.00 0.03 0.03 64 1016.2
20260506024023 20 0 0.0 3.2 0.00 0.03 0.03 63 1016.2
20260506023519 20 0 0.0 3.2 0.00 0.03 0.03 63 1016.2
20260506023038 21 0 0.0 4.8 0.00 0.03 0.03 62 1016.3
20260506022522 21 0 0.0 9.7 0.00 0.03 0.03 62 1016.4
20260506022022 21 0 1.6 9.7 0.00 0.03 0.03 62 1016.3
20260506021537 21 84 0.0 3.2 0.00 0.03 0.03 62 1016.4
20260506021019 21 0 0.0 4.8 0.00 0.03 0.03 61 1016.3
20260506020525 21 0 0.0 4.8 0.00 0.03 0.03 61 1016.3
20260506020036 21 0 0.0 4.8 0.00 0.03 0.03 61 1016.3
20260506015523 21 0 0.0 4.8 0.00 0.03 0.03 61 1016.1
20260506015022 21 0 0.0 3.2 0.00 0.03 0.03 60 1016.1
20260506014537 22 0 0.0 3.2 0.00 0.03 0.03 59 1015.9
20260506014019 22 0 0.0 3.2 0.00 0.03 0.03 59 1015.9
20260506013519 22 0 0.0 3.2 0.00 0.03 0.03 59 1015.8
20260506013035 22 0 0.0 3.2 0.00 0.03 0.03 59 1015.9
20260506012523 22 0 0.0 4.8 0.00 0.03 0.03 59 1015.8
20260506012019 22 0 0.0 4.8 0.00 0.03 0.03 58 1015.7
20260506011539 22 0 0.0 4.8 0.00 0.03 0.03 58 1015.6
20260506011022 22 0 0.0 4.8 0.00 0.03 0.03 57 1015.5
20260506010522 22 0 0.0 4.8 0.00 0.03 0.03 57 1015.3
20260506010037 22 0 0.0 1.6 0.00 0.03 0.03 56 1015.2
20260506005520 22 0 0.0 1.6 0.00 0.03 0.03 55 1014.8
20260506005022 23 0 0.0 1.6 0.00 0.03 0.03 54 1014.6
20260506004604 23 0 0.0 1.6 0.00 0.03 0.03 54 1014.7
20260506004022 23 0 0.0 0.0 0.00 0.03 0.03 52 1014.6
20260506003519 23 0 0.0 0.0 0.00 0.03 0.03 51 1014.6
20260506003037 23 0 0.0 3.2 0.00 0.03 0.03 49 1014.5
20260506002522 23 0 0.0 3.2 0.00 0.03 0.03 48 1014.4
20260506002022 24 0 0.0 0.0 0.00 0.03 0.03 46 1014.4
20260506001536 24 0 0.0 0.0 0.00 0.03 0.03 45 1014.4
20260506001020 25 0 0.0 0.0 0.00 0.03 0.03 45 1014.3
20260506000520 25 0 0.0 0.0 0.00 0.03 0.03 44 1014.3
20260506000033 25 0 0.0 0.0 0.00 0.03 0.03 44 1014.3
20260505235519 25 0 0.0 0.0 0.00 0.03 0.03 44 1014.3
20260505235023 25 0 0.0 0.0 0.00 0.03 0.03 43 1014.4
20260505234603 25 0 0.0 0.0 0.00 0.03 0.03 42 1014.3
20260505234023 26 0 0.0 1.6 0.00 0.03 0.03 42 1014.3
20260505233520 26 0 0.0 4.8 0.00 0.03 0.03 42 1014.2
20260505233036 26 0 0.0 4.8 0.00 0.03 0.03 41 1014.2
20260505232522 26 0 0.0 4.8 0.00 0.03 0.03 41 1014.3
20260505232023 26 0 0.0 4.8 0.00 0.03 0.03 40 1014.4
20260505231538 26 0 0.0 4.8 0.00 0.03 0.03 40 1014.4
20260505231021 26 0 0.0 4.8 0.00 0.03 0.03 41 1014.3
20260505230521 26 0 0.0 14.5 0.00 0.03 0.03 40 1014.4
20260505230036 27 0 0.0 14.5 0.00 0.03 0.03 39 1014.4
20260505225519 27 0 0.0 1.6 0.00 0.03 0.03 39 1014.4
20260505225019 27 0 0.0 4.8 0.00 0.03 0.03 39 1014.5
20260505224535 27 0 0.0 4.8 0.00 0.03 0.03 38 1014.5
20260505224021 27 12 0.0 1.6 0.00 0.03 0.03 38 1014.3
20260505223519 27 0 0.0 1.6 0.00 0.03 0.03 38 1014.3
20260505223040 27 0 0.0 3.2 0.00 0.03 0.03 38 1014.4
20260505222521 27 0 0.0 3.2 0.00 0.03 0.03 37 1014.4
20260505222023 27 0 0.0 6.4 0.00 0.03 0.03 38 1014.4
20260505221553 27 0 0.0 14.5 0.00 0.03 0.03 37 1014.4
20260505221023 27 87 1.6 14.5 0.00 0.03 0.03 37 1014.3
20260505220520 27 84 0.0 11.3 0.00 0.03 0.03 37 1014.4
20260505220037 27 0 0.0 11.3 0.00 0.03 0.03 38 1014.5
20260505215520 27 119 1.6 11.3 0.00 0.03 0.03 38 1014.4
20260505215021 27 128 0.0 6.4 0.00 0.03 0.03 38 1014.6
20260505214542 27 0 0.0 6.4 0.00 0.03 0.03 38 1014.6
20260505214020 27 0 0.0 4.8 0.00 0.03 0.03 38 1014.6
20260505213519 28 0 0.0 4.8 0.00 0.03 0.03 37 1014.7
20260505213035 28 0 0.0 4.8 0.00 0.03 0.03 38 1014.7
20260505212518 28 114 0.0 14.5 0.00 0.03 0.03 38 1014.7
20260505212023 28 0 0.0 14.5 0.00 0.03 0.03 38 1014.7